OpenBCM V1.13 (Linux)

Packet Radio Mailbox

DB0FHN

[JN59NK Nuernberg]

 Login: GUEST





  
UA9FBV > KEPS     11.12.04 08:16l 151 Lines 3945 Bytes #999 (0) @ AMSAT
BID : ORB04345.O
Read: GUEST
Subj: Orbital Elements  04345.OSCAR
Path: DB0FHN<DB0FOR<DB0SIF<DB0EA<DB0RES<ER3KAZ<UA9FBV
Sent: 041211/0608Z @:UA9FBV.PRM.RUS.AS #:12664 [Perm] GATEWAY $:ORB04345.O
From: UA9FBV@UA9FBV.PRM.RUS.AS
To  : KEPS@AMSAT


HR AMSAT ORBITAL ELEMENTS FOR OSCAR SATELLITES
FROM WA5QGD FORT WORTH,TX December 10, 2004
SEND SUBSCRIBE/UNSUBSCRIBE TO majordomo@amsat.org ONLY
BID: ORB04345.O
TO ALL RADIO AMATEURS BT

Satellite: AO-07
Catalog number: 07530
Epoch time:      04344.69150514
Element set:    0361
Inclination:      101.6589 deg
RA of node:       028.5195 deg
Eccentricity:    0.0012026
Arg of perigee:   241.7146 deg
Mean anomaly:     118.2712 deg
Mean motion:   12.53569865 rev/day
Decay rate:       -2.9e-07 rev/day^2
Epoch rev:           37590
Checksum:              293

Satellite: AO-10
Catalog number: 14129
Epoch time:      04344.90066497
Element set:     129
Inclination:       26.8668 deg
RA of node:        57.4735 deg
Eccentricity:    0.6031876
Arg of perigee:   147.5031 deg
Mean anomaly:     270.7588 deg
Mean motion:    2.05868634 rev/day
Decay rate:        7.6e-07 rev/day^2
Epoch rev:           16163
Checksum:              325

Satellite: UO-11
Catalog number: 14781
Epoch time:      04345.27436040
Element set:     657
Inclination:       98.1910 deg
RA of node:       333.1778 deg
Eccentricity:    0.0008160
Arg of perigee:   243.1925 deg
Mean anomaly:     116.8466 deg
Mean motion:   14.79100129 rev/day
Decay rate:       4.44e-06 rev/day^2
Epoch rev:           11387
Checksum:              292

Satellite: RS-10/11
Catalog number: 18129
Epoch time:      04345.53747599
Element set:     559
Inclination:       82.9266 deg
RA of node:        17.6836 deg
Eccentricity:    0.0010952
Arg of perigee:   183.7800 deg
Mean anomaly:     176.3280 deg
Mean motion:   13.72750093 rev/day
Decay rate:        2.7e-07 rev/day^2
Epoch rev:           87519
Checksum:              330

Satellite: FO-20
Catalog number: 20480
Epoch time:      04345.64562648
Element set:     764
Inclination:       99.0176 deg
RA of node:       189.7120 deg
Eccentricity:    0.0539964
Arg of perigee:   307.0750 deg
Mean anomaly:      48.2129 deg
Mean motion:   12.83343379 rev/day
Decay rate:       -7.4e-07 rev/day^2
Epoch rev:           69531
Checksum:              324

Satellite: RS-12/13
Catalog number: 21089
Epoch time:      04345.11428613
Element set:     783
Inclination:       82.9237 deg
RA of node:        51.2093 deg
Eccentricity:    0.0027604
Arg of perigee:   245.4982 deg
Mean anomaly:     114.3296 deg
Mean motion:   13.74444736 rev/day
Decay rate:        3.7e-07 rev/day^2
Epoch rev:           69452
Checksum:              307

Satellite: RS-15
Catalog number: 23439
Epoch time:      04344.69301388
Element set:    0841
Inclination:      064.8192 deg
RA of node:       054.0089 deg
Eccentricity:    0.0158394
Arg of perigee:   349.7509 deg
Mean anomaly:     010.0200 deg
Mean motion:   11.27550439 rev/day
Decay rate:       -3.9e-07 rev/day^2
Epoch rev:           41002
Checksum:              287

Satellite: FO-29
Catalog number: 24278
Epoch time:      04345.77327237
Element set:     844
Inclination:       98.5736 deg
RA of node:        54.5341 deg
Eccentricity:    0.0350174
Arg of perigee:   304.5499 deg
Mean anomaly:      52.3047 deg
Mean motion:   13.52906294 rev/day
Decay rate:        7.0e-08 rev/day^2
Epoch rev:           41071
Checksum:              312

Satellite: SO-33
Catalog number: 25509
Epoch time:      04345.42630559
Element set:     255
Inclination:       31.4339 deg
RA of node:        19.4847 deg
Eccentricity:    0.0355646
Arg of perigee:   316.1468 deg
Mean anomaly:      41.1449 deg
Mean motion:   14.27938102 rev/day
Decay rate:       2.69e-06 rev/day^2
Epoch rev:           31982
Checksum:              313

Satellite: AO-40
Catalog number: 26609
Epoch time:      04343.03021472
Element set:     467
Inclination:        9.1790 deg
RA of node:       331.2071 deg
Eccentricity:    0.7959964
Arg of perigee:   345.7402 deg
Mean anomaly:       0.7974 deg
Mean motion:    1.25586517 rev/day
Decay rate:       -3.7e-07 rev/day^2
Epoch rev:            1885
Checksum:              305



Read previous mail | Read next mail


 13.09.2026 19:42:38lGo back Go up